This demonstration page uses our WeatherBlox Daily Observations layout. Learn more.

Left ArrowRight Arrow

Hourly Observations for December 12, 2016

Temp ( °F °C ) Dew Point ( °F °C ) Humidity (%) Winds ( mph kmh ) Pressure ( in mb ) Visibility ( mi km ) Precip ( " mm )
12:19 am 00:19 Cloudy 36 2 34 1 93 93 WSW 13 20 29.85 1011 7 11 N/A
12:39 am 00:39 Cloudy 36 2 34 1 93 93 WSW 14 22 29.85 1011 10 16 N/A
1:00 am 01:00 Cloudy 36 2 34 1 93 93 WSW 13 20 29.85 1011 10 16 N/A
1:19 am 01:19 Cloudy 36 2 36 2 100 100 WSW 9 15 29.88 1012 10 16 N/A
1:59 am 01:59 Cloudy 37 3 36 2 93 93 WSW 13 20 29.88 1012 10 16 N/A
2:19 am 02:19 Cloudy 37 3 36 2 93 93 WSW 13 20 29.88 1012 5 8 N/A
2:39 am 02:39 Cloudy 37 3 36 2 93 93 WSW 12 19 29.88 1012 4 6 N/A
2:59 am 02:59 Cloudy 37 3 36 2 93 93 W 12 19 29.88 1012 4 6 N/A
3:19 am 03:19 Cloudy 37 3 36 2 93 93 W 13 20 29.91 1013 7 11 N/A
3:39 am 03:39 Cloudy 37 3 36 2 93 93 W 12 19 29.91 1013 7 11 N/A
3:59 am 03:59 Cloudy 37 3 36 2 93 93 WNW 17 28 29.91 1013 10 16 N/A
4:19 am 04:19 Cloudy 36 2 36 2 100 100 W 14 22 29.91 1013 10 16 N/A
4:39 am 04:39 Cloudy 36 2 34 1 93 93 W 10 17 29.91 1013 10 16 N/A
4:59 am 04:59 Cloudy 36 2 34 1 93 93 W 16 26 29.97 1015 10 16 N/A
5:19 am 05:19 Cloudy 36 2 34 1 93 93 W 12 19 29.97 1015 10 16 N/A
5:39 am 05:39 Cloudy 36 2 32 undefined 87 87 WNW 16 26 29.97 1015 10 16 N/A
5:59 am 05:59 Cloudy 34 1 32 undefined 93 93 WNW 18 30 29.97 1015 10 16 N/A
6:19 am 06:19 Cloudy 34 1 30 -1 87 87 NW 20 31 30.00 1016 10 16 N/A
6:39 am 06:39 Cloudy 32 undefined 30 -1 93 93 WNW 15 24 30.00 1016 7 11 N/A
6:59 am 06:59 Cloudy 32 undefined 30 -1 93 93 WNW 16 26 30.03 1017 10 16 N/A
7:19 am 07:19 Cloudy 32 undefined 28 -2 87 87 WNW 18 30 30.03 1017 10 16 N/A
7:39 am 07:39 Cloudy 32 undefined 27 -3 80 80 WNW 17 28 30.03 1017 10 16 N/A
7:59 am 07:59 Cloudy 32 undefined 27 -3 80 80 WNW 16 26 30.03 1017 10 16 N/A
8:19 am 08:19 Cloudy 32 undefined 27 -3 80 80 WNW 16 26 30.06 1018 10 16 N/A
8:39 am 08:39 Cloudy 32 undefined 27 -3 80 80 WNW 13 20 30.06 1018 10 16 N/A
8:59 am 08:59 Cloudy 32 undefined 27 -3 80 80 WNW 14 22 30.06 1018 10 16 N/A
9:19 am 09:19 Cloudy 32 undefined 27 -3 80 80 WNW 9 15 30.09 1019 10 16 N/A
9:39 am 09:39 Cloudy 32 undefined 27 -3 80 80 WNW 14 22 30.09 1019 10 16 N/A
9:59 am 09:59 Cloudy 30 -1 25 -4 80 80 WNW 18 30 30.12 1020 10 16 N/A
10:20 am 10:20 Cloudy 30 -1 25 -4 80 80 W 14 22 30.12 1020 10 16 N/A
10:39 am 10:39 Cloudy 28 -2 25 -4 86 86 NW 15 24 30.12 1020 10 16 N/A
10:59 am 10:59 Cloudy 28 -2 23 -5 80 80 WNW 14 22 30.15 1021 10 16 N/A
11:20 am 11:20 Cloudy 28 -2 23 -5 80 80 W 16 26 30.15 1021 10 16 N/A
11:39 am 11:39 Cloudy 28 -2 23 -5 80 80 WNW 10 17 30.15 1021 10 16 N/A
11:59 am 11:59 Cloudy 28 -2 21 -6 74 74 WNW 10 17 30.15 1021 10 16 N/A
12:20 pm 12:20 Cloudy 28 -2 21 -6 74 74 WNW 13 20 30.15 1021 10 16 N/A
12:39 pm 12:39 Cloudy 28 -2 21 -6 74 74 W 9 15 30.15 1021 10 16 N/A
12:59 pm 12:59 Cloudy 28 -2 21 -6 74 74 WNW 10 17 30.15 1021 10 16 N/A
1:20 pm 13:20 Cloudy 28 -2 21 -6 74 74 WNW 13 20 30.15 1021 10 16 N/A
1:39 pm 13:39 Cloudy 28 -2 21 -6 74 74 WNW 10 17 30.15 1021 10 16 N/A
1:59 pm 13:59 Cloudy 28 -2 23 -5 80 80 W 13 20 30.15 1021 10 16 N/A
2:19 pm 14:19 Cloudy 28 -2 21 -6 74 74 W 12 19 30.15 1021 10 16 N/A
2:39 pm 14:39 Cloudy 28 -2 21 -6 74 74 W 10 17 30.15 1021 10 16 N/A
2:59 pm 14:59 Cloudy 28 -2 21 -6 74 74 W 8 13 30.15 1021 10 16 N/A
3:20 pm 15:20 Cloudy 28 -2 21 -6 74 74 W 14 22 30.18 1022 10 16 N/A
3:39 pm 15:39 Cloudy 28 -2 21 -6 74 74 W 10 17 30.18 1022 10 16 N/A
3:59 pm 15:59 Cloudy 28 -2 21 -6 74 74 WNW 10 17 30.18 1022 10 16 N/A
4:19 pm 16:19 Cloudy 28 -2 21 -6 74 74 WSW 8 13 30.18 1022 10 16 N/A
4:39 pm 16:39 Cloudy 28 -2 23 -5 80 80 WSW 7 11 30.18 1022 10 16 N/A
4:59 pm 16:59 Cloudy 28 -2 21 -6 74 74 NW 5 7 30.15 1021 10 16 N/A
5:19 pm 17:19 Cloudy 28 -2 21 -6 74 74 WSW 7 11 30.18 1022 10 16 N/A
5:39 pm 17:39 Cloudy 28 -2 23 -5 80 80 W 6 9 30.18 1022 10 16 N/A
5:59 pm 17:59 Cloudy 28 -2 23 -5 80 80 SW 10 17 30.18 1022 10 16 N/A
6:19 pm 18:19 Cloudy 28 -2 21 -6 74 74 SW 9 15 30.21 1023 10 16 N/A
6:39 pm 18:39 Cloudy 28 -2 21 -6 74 74 SW 8 13 30.21 1023 10 16 N/A
6:59 pm 18:59 Cloudy 27 -3 21 -6 80 80 WSW 9 15 30.21 1023 10 16 N/A
7:19 pm 19:19 Cloudy 27 -3 21 -6 80 80 WSW 9 15 30.21 1023 10 16 N/A
7:39 pm 19:39 Cloudy 27 -3 21 -6 80 80 WSW 5 7 30.21 1023 10 16 N/A
8:00 pm 20:00 Cloudy 25 -4 21 -6 86 86 WSW 3 6 30.24 1024 10 16 N/A
8:19 pm 20:19 Mostly Cloudy 25 -4 21 -6 86 86 WSW 5 7 30.24 1024 10 16 N/A
8:39 pm 20:39 Mostly Cloudy 27 -3 21 -6 80 80 WSW 3 6 30.21 1023 10 16 N/A
9:00 pm 21:00 Cloudy 25 -4 21 -6 86 86 WSW 5 7 30.24 1024 10 16 N/A
9:19 pm 21:19 Mostly Cloudy 25 -4 21 -6 86 86 WSW 3 6 30.24 1024 10 16 N/A
9:39 pm 21:39 Cloudy 25 -4 21 -6 86 86 SW 3 6 30.24 1024 10 16 N/A
10:00 pm 22:00 Mostly Cloudy 25 -4 21 -6 86 86 SSW 3 6 30.24 1024 10 16 N/A
10:19 pm 22:19 Partly Cloudy 25 -4 21 -6 86 86 N N/A 30.18 1022 10 16 N/A
10:39 pm 22:39 Clear 23 -5 21 -6 93 93 N N/A 30.21 1023 10 16 N/A
10:59 pm 22:59 Clear 25 -4 21 -6 86 86 SSE 3 6 30.24 1024 10 16 N/A
11:19 pm 23:19 Clear 23 -5 21 -6 93 93 SE 5 7 N/A 7 11 N/A
11:39 pm 23:39 Clear 23 -5 21 -6 93 93 ESE 3 6 30.21 1023 10 16 N/A
11:59 pm 23:59 Clear 23 -5 21 -6 93 93 E 5 7 30.18 1022 7 11 N/A

Powered by AerisWeather